Home > Weather > Kiritimati > Past weeks

Flag for Kiribati Past Weather in Kiritimati, Christmas Island, Kiribati — Yesterday and Last 2 Weeks

Now
86 °F

Scattered clouds.


Feels Like: 93 °F
Forecast: 78 / 83 °F
Wind: 16 mph from Southeast

Location: Christmas / Cassidy

Current Time: Jul 29, 2016 at 2:19:29 PM

Latest Report: Jul 29, 2016 at 2:00 PM


Visibility: N/A

Pressure: 29.74 "Hg

Humidity: 66%

Dew Point: 73 °F

Location of KiritimatiLocation

Past Weather in Kiritimati — Graph

°F

Kiritimati Temperature Yesterday

Maximum temperature yesterday: 84 °F (at 10:00 AM)
Minimum temperature yesterday: 77 °F (at 4:00 AM)
Average temperature yesterday: 81 °F

High & Low Weather Summary for the Past Weeks

 TemperatureHumidityPressure
High86 °F (Jul 21, 2:00 PM)94% (Jul 21, 9:00 PM)29.95 "Hg (Jul 21, 9:00 PM)
Low75 °F (Jul 18, 5:00 AM)62% (Jul 17, 12:00 PM)29.65 "Hg (Jul 27, 4:00 AM)
Average80 °F75%29.83 "Hg
* Reported Jul 14 11:00 AM — Jul 29 11:00 AM, Kiritimati, Weather by CustomWeather, © 2016

Note: Actual official high and low records may vary slightly from our data, if they occured in-between our weather recording intervals... More about our weather records

Advertising

Kiritimati Weather History for the Previous 24 Hours

Scroll right to see more
 ConditionsComfort  
Time TempWeatherWind HumidityBarometerVisibility
11:00 AM
Fri, Jul 29
86 °FScattered clouds.23 mph66%29.83 "HgN/A
10:00 AM86 °FScattered clouds.17 mph62%29.83 "HgN/A
9:00 AM84 °FPassing clouds.16 mph66%29.83 "HgN/A
8:00 AM82 °FScattered clouds.17 mph70%29.80 "HgN/A
7:00 AM81 °FScattered clouds.12 mph74%29.80 "HgN/A
6:00 AM79 °FScattered clouds.16 mph79%29.77 "HgN/A
5:00 AM79 °FScattered clouds.8 mph79%29.77 "HgN/A
4:00 AM79 °FPassing clouds.12 mph79%29.77 "HgN/A
3:00 AM81 °FWarm.N/A79%29.77 "HgN/A
2:00 AM79 °FPassing clouds.12 mph84%29.77 "HgN/A
1:00 AM81 °FPassing clouds.14 mph74%29.80 "HgN/A
12:00 AM81 °FPassing clouds.5 mph74%29.80 "HgN/A
11:00 PM
Thu, Jul 28
81 °FPassing clouds.9 mph79%29.83 "HgN/A
10:00 PM81 °FPassing clouds.12 mph74%29.83 "HgN/A
9:00 PM81 °FPassing clouds.15 mph79%29.83 "HgN/A
8:00 PM81 °FPassing clouds.16 mph74%29.80 "HgN/A
7:00 PM81 °FPassing clouds.12 mph74%29.77 "HgN/A
6:00 PM82 °FPassing clouds.15 mph70%29.74 "HgN/A
5:00 PM84 °FPassing clouds.23 mph70%29.71 "HgN/A
4:00 PM84 °FPassing clouds.25 mph70%29.71 "HgN/A
3:00 PM84 °FPassing clouds.9 mph70%29.74 "HgN/A
Weather by CustomWeather, © 2016

See weather overviewHow to use our weather pages